Massena, NY

5:26 AM EDT on September 16, 2019 (GMT -0400)
Massena International-Richards

Weather History for KMSS - July, 2019

Change the Weather History Date:

Sunday, July 14, 2019

  Actual Average Record
Temperature  
Mean Temperature 68 °F 69 °F  
Max Temperature 78 °F 80 °F 92 °F (1995)
Min Temperature 57 °F 58 °F 47 °F (1990)
Degree Days  
Heating Degree Days 0 1  
Month to date heating degree days 0 14  
Since 1 June heating degree days 97 110  
Since 1 July heating degree days 0 14  
Cooling Degree Days 3 5  
Month to date cooling degree days 103 67  
Year to date cooling degree days 162 156  
Since 1 June cooling degree days 161 142  
Growing Degree Days 20 (Base 50)    
Moisture  
Dew Point 60 °F    
Average Humidity 72    
Maximum Humidity 93    
Minimum Humidity 50    
Precipitation  
Precipitation 0.00 in 0.10 in 1.18 in (2015)
Month to date precipitation 0.92 1.56  
Year to date precipitation 15.41 17.01  
Sea Level Pressure  
Sea Level Pressure 29.95 in    
Wind  
Wind Speed 8 mph (West)    
Max Wind Speed 17 mph    
Max Gust Speed 22 mph    
Visibility 10 miles    
Events      
T = Trace of Precipitation, MM = Missing Value Source: NWS Daily Summary

Daily Weather History Graph

Daily Weather History Graph

Search for Another Location

Airport or City:

Astronomy

Jul. 14, 2019 Rise Set
Actual Time 5:26 AM EDT 8:43 PM EDT
Civil Twilight 4:50 AM EDT 9:19 PM EDT
Nautical Twilight 4:03 AM EDT 10:06 PM EDT
Astronomical Twilight 3:04 AM EDT 11:04 PM EDT
Moon 7:04 PM EDT (7/14) 3:26 AM EDT (7/14)
Length of Visible Light 16h 29m
Length of Day
15h 17m
Waxing Gibbous, 95% of the Moon is Illuminated
Jul 14
Waxing Gibbous
Jul 16
Full
Jul 24
Last Quarter
Jul 31
New
Aug 7
First Quarter

Hourly Weather History & Observations

Time (EDT) Temp. Dew Point Humidity Pressure Visibility Wind Dir Wind Speed Gust Speed Precip Events Conditions
12:53 AM 68.0 °F 62.1 °F 81% 29.85 in 10.0 mi WSW 4.6 mph - N/A   Clear
1:53 AM 66.9 °F 63.0 °F 87% 29.84 in 10.0 mi SW 4.6 mph - N/A   Mostly Cloudy
2:53 AM 66.0 °F 62.1 °F 87% 29.85 in 10.0 mi SW 4.6 mph - N/A   Scattered Clouds
3:53 AM 64.9 °F 62.1 °F 90% 29.86 in 10.0 mi WSW 4.6 mph - N/A   Mostly Cloudy
4:53 AM 64.9 °F 62.1 °F 90% 29.88 in 9.0 mi SW 4.6 mph - N/A   Mostly Cloudy
5:53 AM 64.0 °F 62.1 °F 93% 29.89 in 10.0 mi SW 5.8 mph - N/A   Mostly Cloudy
6:53 AM 66.0 °F 62.1 °F 87% 29.91 in 10.0 mi WSW 4.6 mph - N/A   Mostly Cloudy
7:41 AM 66.9 °F 62.1 °F 84% 29.92 in 10.0 mi West 8.1 mph - N/A   Mostly Cloudy
7:53 AM 66.9 °F 62.1 °F 84% 29.92 in 10.0 mi WNW 5.8 mph - N/A   Mostly Cloudy
8:49 AM 69.8 °F 60.8 °F 73% 29.95 in 10.0 mi Variable 5.8 mph - N/A   Overcast
8:53 AM 68.0 °F 61.0 °F 78% 29.95 in 10.0 mi WNW 9.2 mph - N/A   Overcast
9:53 AM 70.0 °F 60.1 °F 71% 29.96 in 10.0 mi Variable 6.9 mph - N/A   Overcast
10:44 AM 73.0 °F 61.0 °F 66% 29.97 in 10.0 mi Variable 6.9 mph - N/A   Mostly Cloudy
10:53 AM 71.1 °F 59.0 °F 66% 29.97 in 10.0 mi WNW 10.4 mph - N/A   Mostly Cloudy
11:53 AM 73.0 °F 59.0 °F 61% 29.98 in 10.0 mi WNW 11.5 mph - N/A   Mostly Cloudy
12:53 PM 75.9 °F 60.1 °F 58% 29.98 in 10.0 mi WNW 12.7 mph - N/A   Scattered Clouds
1:53 PM 75.0 °F 59.0 °F 57% 29.98 in 10.0 mi West 12.7 mph 18.4 mph N/A   Overcast
2:53 PM 77.0 °F 60.1 °F 56% 29.98 in 10.0 mi WNW 11.5 mph - N/A   Scattered Clouds
3:53 PM 77.0 °F 57.9 °F 52% 29.99 in 10.0 mi West 15.0 mph - N/A   Scattered Clouds
4:53 PM 77.0 °F 57.9 °F 52% 29.98 in 10.0 mi West 11.5 mph 19.6 mph N/A   Clear
5:53 PM 75.9 °F 57.9 °F 54% 29.99 in 10.0 mi West 10.4 mph - N/A   Partly Cloudy
6:53 PM 75.0 °F 55.9 °F 51% 29.99 in 10.0 mi WNW 12.7 mph - N/A   Clear
7:53 PM 72.0 °F 55.0 °F 55% 30.02 in 10.0 mi WNW 10.4 mph - N/A   Clear
8:53 PM 69.1 °F 55.0 °F 61% 30.03 in 10.0 mi WNW 4.6 mph - N/A   Scattered Clouds
9:53 PM 66.0 °F 55.9 °F 70% 30.05 in 10.0 mi West 4.6 mph - N/A   Clear
10:53 PM 64.0 °F 55.9 °F 75% 30.05 in 10.0 mi West 3.5 mph - N/A   Clear
11:53 PM 57.9 °F 55.9 °F 93% 30.04 in 10.0 mi Calm Calm - N/A   Clear